TIANWANG 1B (TW-1B)
1 40927U 15051C   19124.52860962  .00010717  00000-0  17182-3 0  9997
2 40927  97.1440 170.2341 0008379 175.7337 290.4646 15.53214882203002
TIANWANG 1A (TW-1A)
1 40928U 15051D   19124.35932179  .00002964  00000-0  75025-4 0  9995
2 40928  97.1513 156.6670 0009739 230.5863 256.4264 15.40491233202192
LAPAN A2
1 40931U 15052B   19124.36518158  .00000496  00000-0 -20060-4 0  9996
2 40931   6.0001  19.8013 0013510 235.8830 124.0043 14.76604078194558
LQSAT
1 40958U 15057A   19123.78164307  .00000014  00000-0  97631-5 0  9992
2 40958  97.9014 194.2099 0018854  32.8924 327.3453 14.73075487192045
CHUBUSAT 2
1 41338U 16012B   19124.17953485  .00000325  00000-0  18622-4 0  9991
2 41338  31.0033  73.9989 0013699  12.1366 347.9598 15.00132627176076
CHUBUSAT 3
1 41339U 16012C   19124.28743356  .00000310  00000-0  17372-4 0  9993
2 41339  31.0099  71.4681 0013323  20.0136 340.1022 15.00309628176083
OUFTI-1
1 41458U 16025C   19124.46710643  .00002265  00000-0  11841-3 0  9997
2 41458  98.1006 209.0201 0167927 148.7877 212.3454 15.05644984165779
E-STAR-2
1 41459U 16025D   19124.33997147  .00001292  00000-0  69690-4 0  9995
2 41459  98.1019 208.5795 0169818 150.2628 210.8406 15.05298091165728
AAUSAT 4
1 41460U 16025E   19124.43791260  .00003821  00000-0  19379-3 0  9994
2 41460  98.0985 209.8085 0159705 143.3869 217.8419 15.07129245165852
NUSAT 1
1 41557U 16033B   19124.50543739  .00001339  00000-0  53036-4 0  9995
2 41557  97.4172 212.2730 0015612  97.4302 262.8711 15.27092291163196
BEESAT 4
1 41619U 16040W   19124.11675379  .00001315  00000-0  58823-4 0  9998
2 41619  97.3712 187.1825 0011547 175.2380 184.8969 15.22990786146924
PRATHAM
1 41783U 16059A   19123.70709951 +.00000046 +00000-0 +18217-4 0  9991
2 41783 098.0716 184.2940 0033987 166.4087 193.8038 14.62987101138829
ALSAT 1N
1 41789U 16059G   19124.41831367  .00000038  00000-0  16253-4 0  9992
2 41789  98.0735 186.8853 0029068 153.6493 206.6198 14.64233823139021
NAYIF 1
1 42017U 17008BX  19123.91133458 +.00001418 +00000-0 +59028-4 0  9992
2 42017 097.4063 191.4718 0005523 346.6340 013.4750 15.25385005122949
MAX VALIER SAT
1 42778U 17036P   19124.16359053  .00000936  00000-0  44026-4 0  9992
2 42778  97.3585 182.8236 0013188  32.0176 328.1859 15.21921712103312
